IONOSFERA-M 1

Last updated on Sat Oct 25 2025 00:02:33 GMT+0000 (Coordinated Universal Time)

1 61735U 24199A 25297.73855067 .00000091 00000+0 60406-4 0 9992 2 61735 98.7458 167.9516 0002068 91.5312 268.6103 14.22697866 94221
UTC large
Height (km)
Speed (km/s)
/
Latitude / Longitude
Inclination (degrees)
Orbital Period (minutes)
Azimuth
Elevation
Range (km)
Doppler Factor

Next 0 passes for location: London (51.5072 / 0.1276)

Sorry there are no passes over London.